Location: Newark
(25.0000°N, 73.5000°E)
Time: 22:27:04
(UTC+00:00)

RS-15 - Pass Details

Date: 22 February 2020
Orbit: 1898 x 2146 km, 64.8° (Epoch: 06 April)

Event Time Altitude Azimuth Distance (km) Brightness Sun altitude
Rises 13:18:25 0° 178° (S) 5,428 10.5 -4.1°
Reaches altitude 10° 13:22:09 10° 171° (S) 4,397 9.9 -4.9°
Maximum altitude 13:32:07 38° 107° (ESE) 2,682 8.4 -7.1°
Drops below altitude 10° 13:41:47 10° 44° (NE) 4,290 9.4 -9.3°
Sets 13:45:19 0° 37° (NE) 5,284 9.9 -10.1°
